Location: Gleizolles
(44.4833°N, 6.7667°E)
Time: 10:38:07
(UTC+00:00)

Envisat - Pass Details

Date: 13 December 2021
Orbit: 764 x 766 km, 98.2° (Epoch: 20 January)

Event Time Altitude Azimuth Distance (km) Brightness Sun altitude
Rises 03:17:59 0° 29° (NNE) 3,241 6.6 -38.7°
Reaches altitude 10° 03:21:08 10° 50° (NE) 2,309 6.0 -38.2°
Maximum altitude 03:24:23 17° 90° (E) 1,869 5.6 -37.6°
Drops below altitude 10° 03:27:37 10° 130° (SE) 2,297 5.9 -37.0°
Sets 03:30:43 0° 150° (SSE) 3,217 6.5 -36.5°
